| time (UTC) | temp F | wind direction | speed knots | gust knots | rain 1hr in | rain 24hr in | rain mn in | humidity % | barometer mb |
| 20260508011103 | 49 | 232 | 0.0 | 5.2 | 0.00 | 0.00 | 0.00 | 76 | 1012.5 |
| 20260508010117 | 49 | 141 | 0.0 | 3.5 | 0.00 | 0.00 | 0.00 | 75 | 1012.6 |
| 20260508005120 | 49 | 117 | 0.0 | 2.6 | 0.00 | 0.00 | 0.00 | 74 | 1012.6 |
| 20260508004100 | 49 | 186 | 0.0 | 2.6 | 0.00 | 0.00 | 0.00 | 74 | 1012.6 |
| 20260508003058 | 49 | 142 | 0.0 | 0.0 | 0.00 | 0.00 | 0.00 | 74 | 1012.6 |
| 20260508002059 | 49 | 165 | 0.0 | 0.9 | 0.00 | 0.00 | 0.00 | 74 | 1012.6 |
| 20260507234814 | 49 | 160 | 0.0 | 0.0 | 0.00 | 0.00 | 0.00 | 75 | 1012.5 |
| 20260507233804 | 49 | 219 | 0.0 | 2.6 | 0.00 | 0.00 | 0.00 | 75 | 1012.4 |
| 20260507232747 | 49 | 209 | 0.0 | 1.7 | 0.00 | 0.00 | 0.00 | 76 | 1012.3 |
| 20260507231801 | 49 | 240 | 0.0 | 0.0 | 0.00 | 0.00 | 0.00 | 76 | 1012.3 |
| 20260507230732 | 50 | 165 | 0.0 | 1.7 | 0.00 | 0.00 | 0.00 | 75 | 1012.3 |
| 20260507225744 | 50 | 81 | 0.0 | 1.7 | 0.00 | 0.00 | 0.00 | 75 | 1012.3 |
| 20260507223603 | 50 | 219 | 0.0 | 0.0 | 0.00 | 0.00 | 0.00 | 75 | 1012.5 |
| 20260507221513 | 50 | 226 | 0.0 | 4.3 | 0.00 | 0.00 | 0.00 | 77 | 1012.3 |
| 20260507220515 | 49 | 145 | 0.0 | 2.6 | 0.00 | 0.00 | 0.00 | 77 | 1012.3 |
| 20260507214404 | 50 | 197 | 0.0 | 0.0 | 0.00 | 0.00 | 0.00 | 77 | 1012.3 |
| 20260507212216 | 50 | 174 | 0.0 | 2.6 | 0.00 | 0.00 | 0.00 | 76 | 1012.3 |
| 20260507211218 | 51 | 184 | 0.0 | 0.0 | 0.00 | 0.00 | 0.00 | 75 | 1012.3 |
| 20260507210144 | 51 | 163 | 0.0 | 5.2 | 0.00 | 0.00 | 0.00 | 75 | 1012.3 |
| 20260507205201 | 51 | 207 | 0.0 | 5.2 | 0.00 | 0.00 | 0.00 | 75 | 1012.2 |
| 20260507204128 | 51 | 191 | 0.0 | 2.6 | 0.00 | 0.00 | 0.00 | 75 | 1012.2 |
| 20260507203139 | 51 | 194 | 0.9 | 5.2 | 0.00 | 0.00 | 0.00 | 74 | 1012.1 |
| 20260507202113 | 52 | 148 | 0.0 | 4.3 | 0.00 | 0.00 | 0.00 | 74 | 1011.9 |
| 20260507201043 | 52 | 221 | 1.7 | 9.6 | 0.00 | 0.00 | 0.00 | 73 | 1011.8 |
| 20260507200054 | 52 | 158 | 0.0 | 9.6 | 0.00 | 0.00 | 0.00 | 73 | 1011.7 |
| 20260507195103 | 52 | 170 | 0.9 | 5.2 | 0.00 | 0.00 | 0.00 | 72 | 1011.8 |
| 20260507194054 | 53 | 211 | 0.9 | 4.3 | 0.00 | 0.00 | 0.00 | 71 | 1011.7 |
| 20260507193025 | 53 | 134 | 1.7 | 6.1 | 0.00 | 0.00 | 0.00 | 70 | 1011.6 |
| 20260507191957 | 53 | 200 | 0.9 | 7.0 | 0.00 | 0.00 | 0.00 | 69 | 1011.6 |
| 20260507190941 | 53 | 165 | 1.7 | 7.0 | 0.00 | 0.00 | 0.00 | 69 | 1011.7 |
| 20260507185907 | 53 | 127 | 0.9 | 7.8 | 0.00 | 0.00 | 0.00 | 69 | 1011.7 |
| 20260507183802 | 53 | 145 | 0.9 | 7.8 | 0.00 | 0.00 | 0.00 | 68 | 1011.8 |
| 20260507182754 | 54 | 180 | 1.7 | 7.0 | 0.00 | 0.00 | 0.00 | 67 | 1011.7 |
| 20260507181741 | 54 | 141 | 1.7 | 7.8 | 0.00 | 0.00 | 0.00 | 66 | 1011.6 |
| 20260507180806 | 54 | 174 | 3.5 | 7.8 | 0.00 | 0.00 | 0.00 | 65 | 1011.5 |
| 20260507175808 | 54 | 190 | 1.7 | 7.0 | 0.00 | 0.00 | 0.00 | 65 | 1011.6 |
| 20260507174758 | 54 | 177 | 2.6 | 9.6 | 0.00 | 0.00 | 0.00 | 66 | 1011.6 |
| 20260507173753 | 55 | 73 | 2.6 | 9.6 | 0.00 | 0.00 | 0.00 | 65 | 1011.6 |
| 20260507172753 | 55 | 214 | 0.9 | 6.1 | 0.00 | 0.00 | 0.00 | 63 | 1011.6 |
| 20260507171810 | 55 | 158 | 1.7 | 7.8 | 0.00 | 0.00 | 0.00 | 62 | 1011.5 |
| 20260507170751 | 56 | 191 | 1.7 | 7.8 | 0.00 | 0.00 | 0.00 | 61 | 1011.5 |
| 20260507165741 | 56 | 215 | 2.6 | 6.1 | 0.00 | 0.00 | 0.00 | 61 | 1011.6 |
| 20260507164803 | 56 | 155 | 1.7 | 6.1 | 0.00 | 0.00 | 0.00 | 59 | 1011.6 |
| 20260507163734 | 56 | 255 | 2.6 | 8.7 | 0.00 | 0.00 | 0.00 | 58 | 1011.5 |
| 20260507162745 | 57 | 240 | 1.7 | 8.7 | 0.00 | 0.00 | 0.00 | 57 | 1011.5 |
| 20260507160529 | 56 | 235 | 0.9 | 6.1 | 0.00 | 0.00 | 0.00 | 59 | 1011.4 |
| 20260507155528 | 56 | 188 | 2.6 | 7.8 | 0.00 | 0.00 | 0.00 | 61 | 1011.5 |
| 20260507154518 | 56 | 224 | 1.7 | 11.3 | 0.00 | 0.00 | 0.00 | 60 | 1011.6 |
| 20260507153523 | 56 | 166 | 1.7 | 11.3 | 0.00 | 0.00 | 0.00 | 60 | 1011.6 |
| 20260507152541 | 56 | 166 | 0.9 | 6.1 | 0.00 | 0.00 | 0.00 | 60 | 1011.7 |
| 20260507151600 | 56 | 166 | 1.7 | 8.7 | 0.00 | 0.00 | 0.00 | 61 | 1011.7 |
| 20260507150621 | 55 | 172 | 1.7 | 10.4 | 0.00 | 0.00 | 0.00 | 62 | 1011.7 |
| 20260507145604 | 55 | 160 | 2.6 | 10.4 | 0.00 | 0.00 | 0.00 | 62 | 1011.8 |
| 20260507144612 | 55 | 207 | 2.6 | 8.7 | 0.00 | 0.00 | 0.00 | 63 | 1011.9 |
| 20260507143619 | 55 | 144 | 1.7 | 8.7 | 0.00 | 0.00 | 0.00 | 64 | 1011.8 |
| 20260507141453 | 55 | 193 | 1.7 | 7.8 | 0.00 | 0.00 | 0.00 | 64 | 1012.0 |
| 20260507140437 | 55 | 141 | 1.7 | 6.1 | 0.00 | 0.00 | 0.00 | 64 | 1012.0 |
| 20260507135454 | 55 | 217 | 0.9 | 4.3 | 0.00 | 0.00 | 0.00 | 67 | 1012.1 |
| 20260507134440 | 54 | 172 | 0.9 | 4.3 | 0.00 | 0.00 | 0.00 | 70 | 1012.2 |
| 20260507132342 | 54 | 228 | 1.7 | 8.7 | 0.00 | 0.00 | 0.00 | 70 | 1012.3 |
| 20260507130300 | 54 | 238 | 1.7 | 9.6 | 0.00 | 0.00 | 0.00 | 69 | 1012.2 |
| 20260507125318 | 54 | 208 | 1.7 | 9.6 | 0.00 | 0.00 | 0.00 | 69 | 1012.4 |
| 20260507124315 | 53 | 145 | 2.6 | 10.4 | 0.00 | 0.00 | 0.00 | 70 | 1012.4 |
| 20260507123313 | 54 | 215 | 3.5 | 10.4 | 0.00 | 0.00 | 0.00 | 70 | 1012.5 |
| 20260507122324 | 54 | 176 | 3.5 | 9.6 | 0.00 | 0.00 | 0.00 | 69 | 1012.5 |
| 20260507120151 | 54 | 163 | 1.7 | 8.7 | 0.00 | 0.00 | 0.00 | 70 | 1012.4 |
| 20260507115159 | 53 | 153 | 2.6 | 8.7 | 0.00 | 0.00 | 0.00 | 72 | 1012.4 |
| 20260507114156 | 52 | 108 | 2.6 | 8.7 | 0.00 | 0.00 | 0.00 | 73 | 1012.6 |
| 20260507112051 | 51 | 166 | 0.9 | 7.0 | 0.00 | 0.00 | 0.00 | 75 | 1012.6 |
| 20260507111105 | 50 | 160 | 1.7 | 6.1 | 0.00 | 0.00 | 0.00 | 76 | 1012.7 |
| 20260507104957 | 50 | 122 | 0.9 | 6.1 | 0.00 | 0.00 | 0.00 | 77 | 1012.7 |
| 20260507103936 | 49 | 231 | 0.9 | 8.7 | 0.00 | 0.00 | 0.00 | 77 | 1012.8 |
| 20260507100650 | 48 | 186 | 0.9 | 7.0 | 0.00 | 0.00 | 0.00 | 78 | 1012.8 |
| 20260507094543 | 48 | 191 | 0.9 | 7.0 | 0.00 | 0.00 | 0.00 | 79 | 1012.8 |
| 20260507093540 | 48 | 142 | 1.7 | 7.0 | 0.00 | 0.00 | 0.00 | 79 | 1012.9 |
| 20260507092527 | 48 | 155 | 0.9 | 6.1 | 0.00 | 0.00 | 0.00 | 77 | 1012.8 |
| 20260507091529 | 48 | 172 | 1.7 | 7.0 | 0.00 | 0.00 | 0.00 | 77 | 1012.8 |
| 20260507090520 | 48 | 204 | 1.7 | 6.1 | 0.00 | 0.00 | 0.00 | 76 | 1012.8 |
| 20260507085533 | 48 | 175 | 1.7 | 6.1 | 0.00 | 0.00 | 0.00 | 76 | 1012.8 |
| 20260507084514 | 49 | 170 | 0.0 | 6.1 | 0.00 | 0.00 | 0.00 | 76 | 1012.8 |
| 20260507083527 | 49 | 241 | 0.0 | 6.1 | 0.00 | 0.00 | 0.00 | 76 | 1012.7 |
| 20260507081354 | 49 | 146 | 0.0 | 5.2 | 0.00 | 0.00 | 0.00 | 75 | 1012.7 |
| 20260507080324 | 49 | 158 | 0.0 | 3.5 | 0.00 | 0.00 | 0.00 | 76 | 1012.6 |
| 20260507075328 | 48 | 51 | 0.0 | 2.6 | 0.00 | 0.00 | 0.00 | 76 | 1012.7 |
| 20260507074317 | 48 | 155 | 0.0 | 2.6 | 0.00 | 0.00 | 0.00 | 76 | 1012.7 |
| 20260507073319 | 48 | 222 | 0.0 | 0.0 | 0.00 | 0.00 | 0.00 | 76 | 1012.8 |
| 20260507072316 | 48 | 163 | 0.9 | 6.1 | 0.00 | 0.00 | 0.00 | 76 | 1012.7 |
| 20260507071249 | 48 | 215 | 0.9 | 6.1 | 0.00 | 0.00 | 0.00 | 76 | 1012.7 |
| 20260507070241 | 47 | 138 | 0.0 | 3.5 | 0.00 | 0.00 | 0.00 | 76 | 1012.7 |
| 20260507065234 | 47 | 215 | 0.0 | 0.9 | 0.00 | 0.00 | 0.00 | 76 | 1012.7 |
| 20260507064204 | 47 | 206 | 0.0 | 0.0 | 0.00 | 0.00 | 0.00 | 77 | 1012.6 |
| 20260507060839 | 44 | 178 | 0.0 | 1.7 | 0.00 | 0.00 | 0.00 | 79 | 1012.6 |
| 20260507055840 | 44 | 114 | 0.0 | 0.9 | 0.00 | 0.00 | 0.00 | 79 | 1012.7 |
| 20260507053725 | 43 | 355 | 0.0 | 0.0 | 0.00 | 0.00 | 0.00 | 79 | 1012.7 |
| 20260507052732 | 43 | 157 | 0.0 | 0.0 | 0.00 | 0.00 | 0.00 | 79 | 1012.8 |
| 20260507051751 | 43 | 237 | 0.0 | 0.0 | 0.00 | 0.00 | 0.00 | 78 | 1012.8 |
| 20260507050811 | 42 | 97 | 0.0 | 0.0 | 0.00 | 0.00 | 0.00 | 78 | 1012.9 |
| 20260507044656 | 42 | 160 | 0.0 | 0.0 | 0.00 | 0.00 | 0.00 | 76 | 1012.9 |
| 20260507043712 | 43 | 81 | 0.0 | 0.0 | 0.00 | 0.00 | 0.00 | 76 | 1012.9 |
| 20260507042726 | 43 | 197 | 0.0 | 0.0 | 0.00 | 0.00 | 0.00 | 75 | 1012.9 |
| 20260507041701 | 43 | 215 | 0.0 | 0.0 | 0.00 | 0.00 | 0.00 | 75 | 1013.0 |
| 20260507040628 | 43 | 100 | 0.0 | 0.9 | 0.00 | 0.00 | 0.00 | 74 | 1013.0 |
| 20260507035624 | 43 | 28 | 0.0 | 0.0 | 0.00 | 0.00 | 0.00 | 74 | 1013.1 |
| 20260507034552 | 43 | 214 | 0.0 | 0.0 | 0.00 | 0.00 | 0.00 | 73 | 1013.1 |
| 20260507033531 | 43 | 173 | 0.0 | 3.5 | 0.00 | 0.00 | 0.00 | 73 | 1013.1 |
| 20260507032531 | 43 | 9 | 0.0 | 0.0 | 0.00 | 0.00 | 0.00 | 73 | 1013.1 |
| 20260507031516 | 43 | 224 | 0.0 | 0.0 | 0.00 | 0.00 | 0.00 | 73 | 1013.3 |
| 20260507030448 | 43 | 233 | 0.0 | 0.0 | 0.00 | 0.00 | 0.00 | 72 | 1013.3 |
| 20260507024322 | 44 | 169 | 0.0 | 0.0 | 0.00 | 0.00 | 0.00 | 71 | 1013.4 |
| 20260507022145 | 44 | 283 | 0.0 | 4.3 | 0.00 | 0.00 | 0.00 | 70 | 1013.3 |
| 20260507021128 | 44 | 131 | 0.0 | 4.3 | 0.00 | 0.00 | 0.00 | 70 | 1013.3 |
| 20260507015039 | 45 | 66 | 0.0 | 3.5 | 0.00 | 0.00 | 0.00 | 69 | 1013.3 |
| 20260507014051 | 45 | 184 | 0.0 | 0.0 | 0.00 | 0.00 | 0.00 | 69 | 1013.4 |
| 20260507013034 | 45 | 214 | 0.0 | 0.0 | 0.00 | 0.00 | 0.00 | 69 | 1013.5 |
| 20260507012011 | 45 | 13 | 0.0 | 1.7 | 0.00 | 0.00 | 0.00 | 68 | 1013.4 |